Tiempo cada hora Alisivka

Hoy, 3 Agosto, Martes

Tiempo Temperatura Precipitaciones Viento Presión Humedad
00:00 +24°C° 0 mm 2 mps 745 mmHg 69%
01:00 +24°C° 0 mm 2 mps 745 mmHg 71%
02:00 +24°C° 0 mm 2 mps 744 mmHg 73%
03:00 +24°C° 0.1 mm 2 mps 745 mmHg 76%
04:00 +23°C° 0.1 mm 2 mps 745 mmHg 78%
05:00 +23°C° 0.1 mm 2 mps 745 mmHg 81%
06:00 +24°C° 0.2 mm 2 mps 745 mmHg 77%
07:00 +25°C° 0.2 mm 2 mps 745 mmHg 73%
08:00 +26°C° 0.2 mm 2 mps 746 mmHg 69%
09:00 +27°C° 0.1 mm 2 mps 746 mmHg 65%
10:00 +28°C° 0.1 mm 2 mps 746 mmHg 60%
11:00 +29°C° 0.1 mm 2 mps 746 mmHg 56%
12:00 +30°C° 0.2 mm 2 mps 746 mmHg 54%
13:00 +30°C° 0.2 mm 2 mps 746 mmHg 52%
14:00 +31°C° 0.2 mm 2 mps 746 mmHg 50%
15:00 +30°C° 0.1 mm 3 mps 745 mmHg 52%
16:00 +29°C° 0.1 mm 3 mps 745 mmHg 55%
17:00 +28°C° 0.1 mm 4 mps 745 mmHg 57%
18:00 +26°C° 0.6 mm 3 mps 746 mmHg 64%
19:00 +24°C° 0.6 mm 3 mps 746 mmHg 70%
20:00 +23°C° 0.6 mm 2 mps 747 mmHg 77%
21:00 +21°C° 0 mm 2 mps 747 mmHg 77%
22:00 +21°C° 0 mm 2 mps 747 mmHg 76%
23:00 +20°C° 0 mm 2 mps 747 mmHg 76%

Mañana, 4 Agosto, Miércoles

Tiempo Temperatura Precipitaciones Viento Presión Humedad
00:00 +20°C° 0 mm 2 mps 747 mmHg 76%
01:00 +20°C° 0 mm 2 mps 747 mmHg 75%
02:00 +20°C° 0 mm 2 mps 747 mmHg 75%
03:00 +19°C° 0 mm 2 mps 748 mmHg 76%
04:00 +19°C° 0 mm 2 mps 748 mmHg 77%
05:00 +19°C° 0 mm 2 mps 748 mmHg 79%
06:00 +21°C° 0 mm 2 mps 748 mmHg 71%
07:00 +24°C° 0 mm 2 mps 749 mmHg 64%
08:00 +26°C° 0 mm 2 mps 749 mmHg 56%
09:00 +27°C° 0 mm 2 mps 749 mmHg 50%
10:00 +28°C° 0 mm 3 mps 749 mmHg 44%
11:00 +29°C° 0 mm 3 mps 749 mmHg 38%
12:00 +29°C° 0 mm 3 mps 749 mmHg 37%
13:00 +30°C° 0 mm 3 mps 749 mmHg 36%
14:00 +30°C° 0 mm 3 mps 749 mmHg 34%
15:00 +30°C° 0 mm 2 mps 749 mmHg 35%
16:00 +29°C° 0 mm 2 mps 749 mmHg 36%
17:00 +29°C° 0 mm 2 mps 749 mmHg 36%
18:00 +28°C° 0 mm 2 mps 749 mmHg 38%
19:00 +26°C° 0 mm 3 mps 749 mmHg 41%
20:00 +24°C° 0 mm 3 mps 749 mmHg 43%
21:00 +22°C° 0 mm 3 mps 749 mmHg 45%
22:00 +21°C° 0 mm 3 mps 749 mmHg 47%
23:00 +20°C° 0 mm 4 mps 749 mmHg 49%

Pasado mañana, 5 Agosto, Jueves

Tiempo Temperatura Precipitaciones Viento Presión Humedad
00:00 +20°C° 0 mm 3 mps 749 mmHg 51%
01:00 +19°C° 0 mm 3 mps 749 mmHg 54%
02:00 +19°C° 0 mm 3 mps 749 mmHg 57%
03:00 +19°C° 0 mm 3 mps 749 mmHg 59%
04:00 +19°C° 0 mm 3 mps 749 mmHg 61%
05:00 +19°C° 0 mm 2 mps 750 mmHg 63%
06:00 +21°C° 0 mm 2 mps 750 mmHg 57%
07:00 +24°C° 0 mm 2 mps 750 mmHg 51%
08:00 +26°C° 0 mm 2 mps 750 mmHg 45%
09:00 +28°C° 0 mm 2 mps 749 mmHg 41%
10:00 +29°C° 0 mm 2 mps 749 mmHg 38%
11:00 +30°C° 0 mm 2 mps 749 mmHg 34%
12:00 +31°C° 0 mm 2 mps 749 mmHg 33%
13:00 +31°C° 0 mm 2 mps 748 mmHg 31%
14:00 +32°C° 0 mm 2 mps 748 mmHg 30%
15:00 +32°C° 0 mm 2 mps 748 mmHg 31%
16:00 +32°C° 0 mm 2 mps 748 mmHg 31%
17:00 +32°C° 0 mm 2 mps 748 mmHg 32%
18:00 +30°C° 0 mm 2 mps 747 mmHg 36%
19:00 +28°C° 0 mm 2 mps 747 mmHg 40%
20:00 +26°C° 0 mm 2 mps 747 mmHg 43%
21:00 +25°C° 0 mm 2 mps 747 mmHg 44%
22:00 +24°C° 0 mm 3 mps 747 mmHg 45%
23:00 +24°C° 0 mm 3 mps 746 mmHg 46%

6 Agosto, Viernes

Tiempo Temperatura Precipitaciones Viento Presión Humedad
00:00 +22°C° 0 mm 3 mps 746 mmHg 46%
01:00 +22°C° 0 mm 3 mps 746 mmHg 46%
02:00 +21°C° 0 mm 3 mps 746 mmHg 47%
03:00 +21°C° 0 mm 3 mps 746 mmHg 47%
04:00 +21°C° 0 mm 3 mps 746 mmHg 48%
05:00 +21°C° 0 mm 3 mps 746 mmHg 48%
06:00 +24°C° 0 mm 3 mps 746 mmHg 44%
07:00 +26°C° 0 mm 4 mps 746 mmHg 39%
08:00 +29°C° 0 mm 5 mps 746 mmHg 34%
09:00 +30°C° 0 mm 5 mps 745 mmHg 32%
10:00 +33°C° 0 mm 5 mps 745 mmHg 30%
11:00 +35°C° 0 mm 5 mps 745 mmHg 28%
12:00 +35°C° 0 mm 5 mps 745 mmHg 28%
13:00 +36°C° 0 mm 5 mps 744 mmHg 29%
14:00 +36°C° 0 mm 5 mps 744 mmHg 29%
15:00 +36°C° 0 mm 4 mps 744 mmHg 30%
16:00 +36°C° 0 mm 4 mps 743 mmHg 32%
17:00 +36°C° 0 mm 3 mps 743 mmHg 33%
18:00 +34°C° 0 mm 3 mps 743 mmHg 36%
19:00 +31°C° 0 mm 3 mps 743 mmHg 40%
20:00 +29°C° 0 mm 3 mps 743 mmHg 43%
21:00 +28°C° 0 mm 4 mps 743 mmHg 41%
22:00 +28°C° 0 mm 4 mps 743 mmHg 39%
23:00 +27°C° 0 mm 4 mps 743 mmHg 37%

7 Agosto, Sábado

Tiempo Temperatura Precipitaciones Viento Presión Humedad
00:00 +27°C° 0 mm 4 mps 742 mmHg 36%
01:00 +27°C° 0 mm 4 mps 742 mmHg 35%
02:00 +27°C° 0 mm 4 mps 742 mmHg 34%
03:00 +25°C° 0.5 mm 4 mps 742 mmHg 42%
04:00 +23°C° 0.5 mm 4 mps 742 mmHg 50%
05:00 +22°C° 0.5 mm 3 mps 742 mmHg 58%
06:00 +24°C° 1.2 mm 3 mps 742 mmHg 59%
07:00 +25°C° 1.2 mm 3 mps 743 mmHg 60%
08:00 +26°C° 1.2 mm 3 mps 743 mmHg 60%
09:00 +27°C° 0.4 mm 4 mps 743 mmHg 54%
10:00 +29°C° 0.4 mm 4 mps 743 mmHg 48%
11:00 +32°C° 0.4 mm 5 mps 743 mmHg 41%
12:00 +34°C° 0 mm 5 mps 743 mmHg 37%
13:00 +35°C° 0 mm 5 mps 742 mmHg 33%
14:00 +37°C° 0 mm 5 mps 742 mmHg 28%
15:00 +36°C° 0 mm 5 mps 742 mmHg 29%
16:00 +36°C° 0 mm 4 mps 742 mmHg 30%
17:00 +36°C° 0 mm 3 mps 742 mmHg 31%
18:00 +34°C° 0 mm 3 mps 742 mmHg 36%
19:00 +30°C° 0 mm 2 mps 742 mmHg 40%
20:00 +28°C° 0 mm 2 mps 743 mmHg 44%
21:00 +27°C° 0 mm 2 mps 743 mmHg 46%
22:00 +27°C° 0 mm 2 mps 743 mmHg 48%
23:00 +26°C° 0 mm 2 mps 743 mmHg 50%

8 Agosto, Domingo

Tiempo Temperatura Precipitaciones Viento Presión Humedad
00:00 +26°C° 0.1 mm 2 mps 744 mmHg 53%
01:00 +25°C° 0.1 mm 3 mps 744 mmHg 56%
02:00 +25°C° 0.1 mm 4 mps 744 mmHg 59%
03:00 +25°C° 0 mm 4 mps 745 mmHg 60%
04:00 +23°C° 0 mm 4 mps 745 mmHg 61%
05:00 +24°C° 0 mm 3 mps 745 mmHg 62%
06:00 +26°C° 0 mm 4 mps 745 mmHg 56%
07:00 +27°C° 0 mm 4 mps 745 mmHg 50%
08:00 +29°C° 0 mm 4 mps 745 mmHg 44%
09:00 +32°C° 0 mm 4 mps 745 mmHg 40%
10:00 +33°C° 0 mm 3 mps 745 mmHg 36%
11:00 +34°C° 0 mm 3 mps 745 mmHg 32%
12:00 +35°C° 0 mm 3 mps 746 mmHg 32%
13:00 +35°C° 0 mm 3 mps 746 mmHg 31%
14:00 +35°C° 0 mm 3 mps 746 mmHg 31%
15:00 +34°C° 0 mm 4 mps 746 mmHg 34%
16:00 +33°C° 0 mm 5 mps 746 mmHg 37%
17:00 +32°C° 0 mm 5 mps 746 mmHg 40%
18:00 +29°C° 0 mm 5 mps 746 mmHg 47%
19:00 +27°C° 0 mm 4 mps 747 mmHg 55%
20:00 +23°C° 0 mm 4 mps 747 mmHg 63%
21:00 +23°C° 0 mm 4 mps 747 mmHg 65%
22:00 +22°C° 0 mm 3 mps 747 mmHg 68%
23:00 +21°C° 0 mm 3 mps 747 mmHg 70%
Mostrar más

Necesitamos Su Consentimiento

Meteoprog y nuestros Proveedores de Servicios pueden almacenar y acceder a sus datos personales como cookies, identificadores de dispositivo u otras tecnologías similares de su dispositivo y procesar dichos datos para personalizar contenido y anuncios, además de ofrecer funciones de redes sociales y analizar el tráfico.

  • Almacenar y/o acceder a información en su dispositivo

    Se puede almacenar o acceder a cookies, identificadores de dispositivo u otra información de su dispositivo para los fines anteriormente indicados.

  • Anuncios y contenido personalizados, medición de anuncios y contenido, percepciones del público, y desarrollo de productos

    Los anuncios y el contenido pueden personalizarse en base a su perfil. Se pueden añadir más datos para personalizar mejor los anuncios y contenidos. Se puede medir el rendimiento de los anuncios y contenidos. Se puede obtener la percepción sobre el público que ha visto los anuncios y contenidos. Dichos datos pueden usarse para desarrollar o mejorar la experiencia del usuario, sistemas y software.

Al hacer clic en ‘Estoy De Acuerdo’ usted permitirá el uso de las cookies, identificadores de dispositivo, balizas web u otras tecnologías similares indicadas. Su configuración puede cambiarse desde el navegador de su dispositivo.

Para ciertos fines, los intereses legítimos pueden ser considerados por encima del consentimiento. Puede leer más sobre ello en nuestra Política de Privacidad y Cookies.